D4512 Weather Reports


time (UTC)temp
C
wind
direction
speed
KPH
gust
KPH
rain 1hr
cm
rain 24hr
cm
rain mn
cm
humidity
%
barometer
mb
20260509033103 13 0 0.0 8.0 0.00 0.00 0.00 84 1010.7
20260509031537 13 341 0.0 6.4 0.00 0.00 0.00 83 1010.9
20260509030046 13 5 4.8 14.5 0.00 0.00 0.00 82 1011.0
20260509024554 13 345 4.8 14.5 0.00 0.00 0.00 81 1011.1
20260509023042 15 5 8.0 25.7 0.00 0.00 0.00 77 1011.1
20260509021541 16 200 0.0 1.6 0.00 0.00 0.00 71 1010.3
20260509020041 16 0 0.0 0.0 0.00 0.00 0.00 71 1010.3
20260509014536 16 0 0.0 0.0 0.00 0.00 0.00 68 1010.2
20260509013042 17 0 0.0 1.6 0.00 0.00 0.00 62 1010.1
20260509011546 17 173 1.6 6.4 0.00 0.00 0.00 59 1010.1
20260509010041 18 213 4.8 11.3 0.00 0.00 0.00 56 1010.3
20260509004534 18 216 3.2 9.7 0.00 0.00 0.00 54 1009.9
20260509003036 18 0 0.0 6.4 0.00 0.00 0.00 53 1009.8
20260509001537 18 0 0.0 8.0 0.00 0.00 0.00 52 1009.8
20260509000034 18 201 0.0 9.7 0.00 0.00 0.00 52 1010.0
20260508234534 18 186 3.2 11.3 0.00 0.00 0.00 50 1009.8
20260508233042 19 203 3.2 12.9 0.00 0.00 0.00 49 1009.7
20260508231534 19 0 1.6 6.4 0.00 0.00 0.00 50 1009.9
20260508230035 19 215 3.2 11.3 0.00 0.00 0.00 49 1009.8
20260508224545 19 188 4.8 12.9 0.00 0.00 0.00 48 1009.7
20260508223034 20 207 1.6 12.9 0.00 0.00 0.00 49 1009.6
20260508221540 20 202 3.2 14.5 0.00 0.00 0.00 49 1009.6
20260508220041 20 197 6.4 19.3 0.00 0.00 0.00 47 1009.5
20260508214545 20 192 1.6 14.5 0.00 0.00 0.00 48 1009.5
20260508213041 20 153 3.2 14.5 0.00 0.00 0.00 47 1009.8
20260508211535 20 233 6.4 17.7 0.00 0.00 0.00 44 1009.7
20260508210038 20 141 4.8 16.1 0.00 0.00 0.00 45 1009.9
20260508204541 20 206 4.8 12.9 0.00 0.00 0.00 45 1010.4
20260508203037 20 169 3.2 16.1 0.00 0.00 0.00 46 1010.8
20260508201536 20 271 4.8 12.9 0.00 0.00 0.00 45 1010.8
20260508200035 20 145 3.2 9.7 0.00 0.00 0.00 44 1011.1
20260508194535 20 232 3.2 25.7 0.00 0.00 0.00 46 1011.2
20260508193035 20 140 8.0 16.1 0.00 0.00 0.00 44 1011.2
20260508191547 21 251 8.0 20.9 0.00 0.00 0.00 41 1011.3
20260508190044 21 113 1.6 19.3 0.00 0.00 0.00 42 1011.6
20260508184539 21 221 6.4 32.2 0.00 0.00 0.00 43 1011.6
20260508183036 20 172 6.4 27.4 0.00 0.00 0.00 44 1011.9
20260508181541 20 157 3.2 20.9 0.00 0.00 0.00 47 1012.3
20260508180041 20 182 9.7 22.5 0.00 0.00 0.00 45 1012.5
20260508174541 20 161 6.4 20.9 0.00 0.00 0.00 44 1012.7
20260508173042 20 242 8.0 30.6 0.00 0.00 0.00 45 1012.9
20260508171545 20 141 11.3 24.1 0.00 0.00 0.00 46 1013.2
20260508170043 20 205 9.7 25.7 0.00 0.00 0.00 47 1013.4
20260508164541 18 171 11.3 32.2 0.00 0.00 0.00 48 1013.7
20260508163056 18 235 4.8 20.9 0.00 0.00 0.00 50 1014.0
20260508161549 18 239 4.8 19.3 0.00 0.00 0.00 50 1014.3
20260508160046 18 209 8.0 19.3 0.00 0.00 0.00 50 1014.3
20260508154544 17 146 6.4 19.3 0.00 0.00 0.00 53 1014.5
20260508153056 17 194 6.4 19.3 0.00 0.00 0.00 53 1014.9
20260508151541 17 192 4.8 22.5 0.00 0.00 0.00 55 1015.1
20260508150040 16 159 11.3 25.7 0.00 0.00 0.00 52 1015.2
20260508144540 16 200 4.8 22.5 0.00 0.00 0.00 54 1015.2
20260508143055 16 188 3.2 14.5 0.00 0.00 0.00 55 1015.2
20260508141538 15 220 4.8 17.7 0.00 0.00 0.00 58 1015.4
20260508140045 15 233 3.2 14.5 0.00 0.00 0.00 60 1015.5
20260508134538 13 233 4.8 16.1 0.00 0.00 0.00 59 1015.6
20260508133042 13 202 3.2 12.9 0.00 0.00 0.00 60 1015.6
20260508131542 12 156 6.4 12.9 0.00 0.00 0.00 61 1015.5
20260508130036 12 180 6.4 16.1 0.00 0.00 0.00 61 1015.4
20260508124534 11 200 4.8 14.5 0.00 0.00 0.00 64 1015.4
20260508123046 10 232 4.8 16.1 0.00 0.00 0.00 65 1015.4
20260508121542 10 200 3.2 12.9 0.00 0.00 0.00 66 1015.4
20260508120041 10 182 3.2 11.3 0.00 0.00 0.00 67 1015.4
20260508114540 9 165 3.2 11.3 0.00 0.00 0.00 68 1015.2
20260508113038 9 194 4.8 14.5 0.00 0.00 0.00 68 1014.9
20260508111540 8 227 1.6 16.1 0.00 0.00 0.00 68 1014.9
20260508110036 8 205 3.2 8.0 0.00 0.00 0.00 68 1014.7
20260508104536 8 213 1.6 6.4 0.00 0.00 0.00 68 1014.6
20260508103043 8 205 3.2 6.4 0.00 0.00 0.00 68 1014.7
20260508101536 8 200 1.6 8.0 0.00 0.00 0.00 69 1014.5
20260508100054 8 197 0.0 6.4 0.00 0.00 0.00 69 1014.6
20260508094540 8 202 0.0 4.8 0.00 0.00 0.00 70 1014.6
20260508093041 8 203 1.6 8.0 0.00 0.00 0.00 72 1014.7
20260508091602 8 0 0.0 3.2 0.00 0.00 0.00 72 1014.7
20260508090047 8 0 0.0 8.0 0.00 0.00 0.00 70 1014.7
20260508084534 8 0 0.0 4.8 0.00 0.00 0.00 70 1014.7
20260508083036 8 188 0.0 4.8 0.00 0.00 0.00 69 1014.5
20260508081545 8 0 0.0 4.8 0.00 0.00 0.00 68 1014.5
20260508080035 8 187 0.0 4.8 0.00 0.00 0.00 69 1014.4
20260508074537 7 0 0.0 4.8 0.00 0.00 0.00 70 1014.5
20260508073045 8 207 0.0 3.2 0.00 0.00 0.00 70 1014.5
20260508071539 8 0 0.0 1.6 0.00 0.00 0.00 68 1014.7
20260508070036 8 0 0.0 4.8 0.00 0.00 0.00 67 1014.7
20260508064537 8 193 1.6 6.4 0.00 0.00 0.00 67 1014.7
20260508063036 8 0 1.6 6.4 0.00 0.00 0.00 67 1015.2
20260508061542 9 0 1.6 6.4 0.00 0.00 0.00 66 1015.4
20260508060055 8 258 0.0 4.8 0.00 0.00 0.00 66 1015.4
20260508054611 9 0 0.0 6.4 0.00 0.00 0.00 66 1015.3
20260508053049 8 196 0.0 4.8 0.00 0.00 0.00 66 1015.4
20260508051535 8 0 0.0 3.2 0.00 0.00 0.00 66 1015.3
20260508050035 9 0 0.0 4.8 0.00 0.00 0.00 65 1015.2
20260508044541 9 0 0.0 4.8 0.00 0.00 0.00 65 1015.1
20260508043040 8 0 0.0 8.0 0.00 0.00 0.00 67 1015.2
20260508041543 8 0 0.0 3.2 0.00 0.00 0.00 68 1015.2
20260508040036 8 0 0.0 6.4 0.00 0.00 0.00 72 1015.1
20260508034543 7 270 0.0 3.2 0.00 0.00 0.00 75 1015.1